Wind_Speed
7 7 8 9 8 7 8 7 7 7 8 8 8 9 9 10 10 11 11 11 11 11 12 14 15 16 17 18 18 18 18 18 17 14 14 17 16 15 13 9 7 7 5 3 5 7 7 8 8 6 5 4 4 3 6 5 3 3 3 5 7 7 8 7 9 9 9 10 11 12 11 12 12 11 7 8 12 13 14 14 12 12 13 14 16 22 25 20
9 8 8 10 9 7 7 8 7 7 7 7 8 9 9 10 10 10 11 11 12 11 12 13 14 16 17 18 19 18 19 20 18 17 21 22 19 17 12 5 4 5 5 5 7 7 6 6 7 5 4 3 3 4 5 4 4 4 3 6 7 7 8 9 12 12 11 12 12 13 13 13 13 12 9 10 15 14 16 14 14 16 14 14 15 21 26 28
9 9 8 9 10 9 7 7 8 7 7 7 7 9 9 10 11 11 11 11 12 11 12 13 14 15 16 18 18 17 18 19 15 12 15 15 15 16 10 5 2 2 4 5 5 6 7 7 7 7 5 4 4 5 6 3 3 4 5 6 8 9 11 11 13 14 13 13 14 15 14 13 13 11 9 12 17 16 17 14 13 18 16 13 12 15 20 20
9 10 9 9 11 11 9 8 8 7 8 8 7 8 10 11 12 12 11 11 12 11 12 13 14 14 15 17 16 15 15 13 8 2 3 5 8 11 10 4 2 0 3 5 6 6 7 8 7 6 5 5 5 6 6 3 2 4 6 7 9 10 11 11 13 14 14 14 14 14 13 14 13 11 11 14 17 14 14 14 15 18 17 15 14 14 15 13
10 11 11 11 12 13 11 9 8 7 8 7 8 9 10 12 12 12 12 12 12 12 12 12 14 14 15 16 13 13 10 6 1 4 7 10 13 12 7 2 4 2 3 6 7 7 7 8 7 5 4 4 5 5 6 7 5 5 8 11 13 12 12 12 13 14 13 13 14 14 13 12 12 12 11 15 16 12 10 13 16 17 17 17 15 13 13 12
11 12 12 13 13 13 13 11 9 8 8 10 11 12 12 12 11 11 12 12 12 12 12 12 13 14 15 15 11 8 5 3 2 4 8 12 14 8 2 2 4 1 5 7 8 7 6 7 6 5 5 5 7 6 7 8 7 7 9 11 12 11 13 13 13 14 13 14 14 13 12 11 13 14 13 16 19 15 13 15 17 16 17 18 16 15 14 14
11 11 12 13 14 14 13 11 9 10 11 13 14 14 12 11 11 11 11 12 12 11 12 12 13 14 15 14 8 4 6 7 8 6 7 12 13 9 5 4 4 4 8 9 8 6 6 7 7 5 5 6 7 8 8 8 8 9 10 10 12 12 14 14 14 13 12 14 14 12 12 13 15 15 12 16 20 18 17 17 18 17 17 18 18 17 17 17
10 10 10 12 14 14 12 10 10 12 13 13 13 13 11 10 10 11 11 11 12 12 12 11 12 12 12 11 6 4 8 12 17 16 11 12 12 10 8 6 5 7 9 10 8 6 5 7 8 6 7 7 7 8 8 7 7 9 11 11 11 12 12 13 12 13 14 14 13 14 15 15 16 14 15 20 20 18 18 17 18 18 17 18 19 19 18 18
11 10 10 11 13 13 12 11 10 11 11 10 10 10 11 11 10 11 10 11 12 12 12 12 11 10 9 7 4 4 6 8 12 14 13 12 11 11 9 6 7 9 10 10 9 7 4 5 7 5 6 7 7 9 7 7 6 7 11 11 11 13 12 13 14 16 16 12 11 16 17 15 14 12 17 22 19 19 18 18 19 18 19 19 18 19 18 19
13 11 10 10 11 13 13 11 11 10 8 7 7 8 10 12 11 11 10 11 11 12 12 11 10 9 8 6 4 6 4 2 4 8 10 9 9 9 8 8 10 11 10 9 9 8 5 6 7 3 4 6 7 8 8 8 7 8 12 13 14 14 14 14 16 18 17 14 15 17 18 17 13 10 14 16 15 18 17 18 20 18 19 19 19 18 17 19
13 11 11 11 11 13 13 12 12 10 8 7 8 9 10 13 13 11 10 10 11 11 11 10 9 8 8 6 5 5 3 5 3 4 8 8 9 10 10 10 10 11 10 8 9 8 8 9 7 3 1 4 6 8 8 5 7 9 12 13 14 14 15 16 18 19 15 12 15 17 18 17 11 11 16 17 16 17 16 17 18 18 17 18 19 18 16 16
13 12 11 12 13 14 13 13 12 11 9 9 10 10 12 15 15 13 11 10 10 11 10 9 8 7 8 7 11 13 7 5 1 3 6 8 10 11 9 10 10 11 9 8 8 7 9 9 4 2 3 4 5 7 5 6 9 10 10 12 15 14 16 17 17 18 13 11 11 10 13 13 10 14 19 18 18 17 18 18 17 17 16 15 17 15 14 14
13 13 13 13 13 13 13 12 11 11 10 10 9 10 13 14 12 11 10 10 10 11 10 9 8 7 7 6 11 18 16 12 11 9 8 8 9 9 10 11 10 8 7 7 5 4 4 5 2 5 6 6 6 6 7 9 10 10 10 10 12 11 11 13 12 10 8 7 3 0 7 9 8 13 16 14 15 15 16 17 16 15 14 13 14 13 13 14
14 14 14 13 13 12 12 11 10 10 10 9 8 9 12 13 11 10 10 11 11 11 10 8 7 7 7 8 11 13 13 15 16 15 12 10 10 8 9 10 8 7 5 5 4 4 2 1 3 5 5 6 6 7 9 9 7 9 10 8 7 7 8 8 7 6 4 2 3 3 7 10 8 11 13 12 12 12 12 13 14 13 13 12 12 13 13 13
15 15 14 13 13 12 12 11 10 10 9 7 7 9 11 12 12 11 11 13 12 11 10 7 8 7 6 10 13 12 10 13 17 20 15 13 13 9 8 10 8 5 4 4 3 3 2 1 2 3 4 7 6 6 7 6 6 7 7 6 5 6 7 5 5 8 6 1 3 6 7 11 12 12 11 10 11 12 13 12 12 12 13 13 12 13 13 13
17 15 15 14 14 13 11 10 9 9 8 6 7 9 9 12 15 14 13 13 12 10 7 6 7 8 6 6 4 5 6 11 15 19 18 16 15 11 10 10 7 5 4 3 3 3 4 3 3 3 4 5 4 4 5 5 6 5 6 6 5 5 7 5 5 6 3 0 5 8 8 11 13 12 11 11 12 14 15 15 15 16 15 14 12 11 11 11
19 17 16 16 16 14 12 11 10 8 7 7 7 8 11 17 19 16 14 12 11 8 6 7 6 7 7 4 1 4 6 11 8 10 17 19 16 12 9 9 6 6 5 4 4 4 4 3 2 2 2 4 4 4 5 5 5 4 4 4 5 7 7 6 7 5 1 3 7 9 10 14 17 17 16 15 14 15 15 16 16 15 14 14 12 11 12 11
20 19 19 18 17 16 14 13 12 11 8 8 9 11 18 21 17 14 12 9 7 6 7 9 6 4 6 6 5 3 2 7 6 7 12 15 15 13 9 7 5 6 5 3 4 5 4 3 3 3 3 4 5 4 5 6 4 5 4 4 6 7 7 9 9 6 4 8 10 9 11 16 20 20 19 18 14 13 15 15 15 14 14 14 12 12 13 12
22 21 20 19 18 16 15 14 13 12 9 9 11 16 18 14 9 9 9 8 6 4 4 6 8 3 2 5 8 2 5 7 7 7 10 12 12 12 10 7 5 6 5 3 5 6 4 2 4 4 5 6 7 8 10 9 8 9 8 6 7 7 9 10 10 10 10 11 10 10 12 17 21 20 20 20 15 12 14 14 13 12 12 12 11 11 11 12
22 22 21 20 18 16 14 13 12 11 9 8 10 13 11 5 5 5 6 9 10 7 6 4 12 7 4 2 5 5 4 6 5 6 12 13 13 12 8 6 5 5 5 4 5 6 5 3 6 7 7 9 10 12 13 12 12 11 8 6 8 8 9 9 11 11 5 5 8 9 13 18 21 20 20 20 16 12 12 12 11 10 10 10 11 11 10 11
23 22 21 20 18 16 14 13 11 10 8 6 6 6 4 3 3 1 1 8 15 17 15 10 13 13 8 1 4 6 3 3 5 7 13 15 15 12 7 7 6 5 7 7 3 3 5 7 9 10 10 11 11 11 10 9 9 8 6 6 7 7 9 10 12 9 2 0 8 10 15 20 20 19 19 18 16 14 11 9 9 9 9 9 9 10 9 9
25 23 22 21 19 17 15 13 12 10 8 5 4 7 4 4 3 3 3 7 12 18 18 17 17 16 16 14 9 7 3 4 6 7 13 15 12 9 7 9 8 6 7 8 4 2 5 10 11 11 11 10 11 11 8 6 6 6 4 5 7 7 8 10 9 6 2 1 8 12 15 18 21 19 17 16 13 8 4 3 5 6 6 5 5 5 4 5
26 24 23 22 20 19 16 14 13 10 7 5 6 8 7 5 4 4 4 6 9 13 14 16 17 13 15 18 13 10 7 8 8 9 17 16 9 7 7 9 9 7 8 10 8 6 6 8 10 12 13 11 11 10 6 5 5 5 5 5 7 7 6 6 6 8 7 6 9 12 12 14 18 14 11 12 8 2 3 0 3 3 4 5 5 5 4 4
28 25 24 23 21 19 16 13 12 10 8 8 9 11 8 6 6 5 4 6 7 8 14 20 17 12 14 14 14 15 11 9 7 9 19 18 8 5 7 9 9 8 8 11 12 11 11 6 2 4 9 11 11 8 6 5 5 6 8 8 8 8 8 8 7 8 9 7 5 9 11 9 7 6 9 10 3 4 3 2 3 4 4 4 4 5 4 5
30 28 25 24 22 20 17 13 11 11 9 9 11 13 11 9 8 6 4 5 5 4 9 16 10 8 13 10 14 14 7 8 9 7 17 18 11 6 5 6 6 8 10 12 11 11 13 9 5 4 5 8 8 7 6 5 4 6 7 8 9 9 9 8 8 8 7 5 1 9 8 7 4 9 10 9 4 2 2 3 4 5 5 4 5 6 6 6
24 29 27 25 24 21 15 9 11 13 9 9 11 9 10 11 9 8 3 3 6 2 3 7 6 7 10 8 11 8 1 6 10 11 18 19 14 7 5 5 4 7 8 8 8 7 8 8 8 9 8 7 7 7 7 7 4 6 3 5 7 7 6 6 6 5 3 5 4 4 2 6 9 12 9 8 7 2 4 3 3 1 1 1 4 3 2 1
14 24 30 28 26 25 15 5 12 15 6 9 13 11 10 11 8 7 2 3 6 2 4 1 1 4 6 7 10 8 1 2 5 11 15 15 13 6 6 6 5 5 3 2 5 3 5 9 8 8 8 8 8 7 7 8 6 4 0 1 3 4 5 5 5 3 3 6 8 4 6 4 8 11 9 9 9 2 2 3 5 6 6 6 7 6 5 5
11 14 26 31 30 31 21 11 17 15 6 7 14 16 13 10 8 2 1 2 4 4 4 0 1 2 4 6 10 7 1 1 3 5 6 8 9 3 6 8 5 6 5 5 7 1 3 8 9 9 8 7 7 7 6 8 7 2 2 1 0 2 4 4 4 4 4 5 6 4 5 2 6 8 11 10 4 4 5 6 8 8 8 7 7 7 7 6
11 10 18 31 33 32 24 17 17 15 13 11 12 16 15 11 7 2 2 2 2 3 3 1 2 2 4 5 8 5 1 1 0 1 4 3 4 0 4 7 5 6 6 9 10 3 1 2 4 6 7 6 7 7 6 8 6 2 2 0 1 3 4 4 4 4 4 4 7 5 6 2 5 7 9 4 4 6 6 6 7 8 8 7 6 6 6 6
10 10 11 24 32 30 23 18 16 16 17 13 12 18 17 9 3 3 2 4 3 2 2 1 2 4 6 5 5 5 2 1 2 2 1 2 2 1 2 2 3 5 5 8 11 8 5 0 2 3 5 3 3 2 1 3 3 2 1 2 3 5 5 4 4 2 2 4 7 7 9 5 3 6 6 1 4 6 4 5 7 7 7 6 6 6 6 6
11 10 9 17 32 32 21 14 18 19 17 17 18 19 12 2 2 3 6 2 2 1 3 2 3 5 8 5 3 4 3 1 4 4 3 3 4 3 3 2 1 2 4 7 8 8 9 6 2 3 4 1 2 2 2 3 4 3 0 1 3 4 2 2 2 2 1 4 4 3 7 7 4 6 5 5 9 6 4 6 5 5 6 5 5 6 6 5
13 11 9 12 27 34 24 19 26 24 20 25 22 11 3 1 1 5 5 1 1 2 2 4 5 5 6 4 2 5 4 3 5 5 4 5 6 6 6 5 4 2 4 6 6 6 8 11 9 5 5 6 4 2 1 2 2 3 3 1 1 2 2 1 3 3 3 4 2 2 4 4 6 8 10 13 10 2 7 6 5 3 3 4 4 4 5 5
17 15 13 12 18 29 28 26 31 28 27 29 17 3 1 3 5 8 7 3 2 2 2 4 6 6 7 4 2 6 5 3 6 5 4 5 6 7 8 9 7 4 2 3 5 5 4 8 11 6 3 7 9 6 3 2 4 5 5 4 4 2 2 3 3 3 4 3 2 4 4 3 5 6 10 9 1 5 7 7 6 3 1 4 4 3 4 5
18 18 18 16 15 22 27 28 32 34 33 24 10 2 3 5 5 4 7 7 3 3 3 5 8 7 7 5 2 6 5 3 7 6 5 5 5 6 8 10 12 7 2 1 3 4 4 4 7 6 2 8 12 10 6 4 5 7 6 4 4 3 3 3 2 3 3 2 2 5 3 3 3 3 6 1 6 6 6 7 6 3 1 3 5 4 4 5
19 19 21 20 17 19 25 32 36 40 32 15 5 4 6 8 5 2 5 8 5 2 3 4 8 6 5 4 2 4 4 3 7 7 5 6 5 6 6 8 12 9 4 3 3 4 6 4 2 2 1 7 10 8 6 3 3 5 5 4 4 4 3 2 1 1 0 2 2 4 3 5 4 7 13 4 5 7 6 5 4 3 3 1 5 6 5 4
20 20 20 20 20 19 25 37 42 42 29 10 5 7 8 9 6 3 4 7 7 6 5 4 4 4 4 4 3 5 4 2 5 5 3 6 6 7 8 7 11 13 9 6 2 2 5 3 0 1 2 3 3 1 4 2 1 2 4 4 3 1 2 1 2 1 3 1 3 4 3 5 3 8 12 4 6 7 6 5 5 5 4 2 3 6 6 5
17 16 15 19 20 18 27 42 45 37 21 8 8 9 8 9 9 7 3 3 8 9 8 5 5 6 6 4 5 9 6 3 4 4 2 4 5 8 11 8 9 15 16 10 3 2 3 2 2 1 1 0 2 3 2 2 2 2 3 3 1 3 3 1 1 2 1 4 3 4 5 5 2 4 4 6 8 7 8 7 7 6 6 5 4 5 6 6
15 12 13 20 22 18 28 44 42 26 10 6 10 10 9 11 11 9 5 3 7 9 8 7 6 7 8 6 6 9 9 4 5 6 3 4 4 6 10 8 8 15 17 12 5 3 1 1 3 1 1 1 1 2 1 2 2 3 2 2 1 1 1 2 2 1 3 4 4 4 7 6 4 3 4 5 8 9 9 7 7 7 6 6 6 6 6 7
12 7 9 17 21 19 31 44 32 14 5 7 11 10 9 12 12 10 10 7 5 6 8 8 7 6 8 8 5 7 10 9 8 7 4 4 5 6 9 8 7 11 14 14 8 4 1 1 2 2 1 1 2 1 3 3 2 2 3 3 1 1 2 3 3 3 4 3 3 3 4 4 5 5 5 4 3 9 9 7 7 5 3 4 4 6 6 6
7 5 6 10 16 21 34 36 18 6 6 9 12 10 7 11 12 11 12 10 6 5 7 9 9 7 7 7 5 5 8 9 9 7 5 6 6 5 7 8 6 5 9 13 9 2 0 3 2 1 3 0 2 4 7 7 6 4 1 2 3 2 1 1 2 3 3 2 3 3 3 4 4 2 1 5 4 8 10 8 6 2 1 2 1 3 4 4
4 6 6 9 19 30 33 21 8 6 8 8 12 12 11 8 5 7 12 13 9 4 2 6 9 8 6 5 5 5 6 7 8 7 5 7 8 5 4 6 6 4 5 8 7 4 2 3 3 2 1 3 4 4 5 5 6 8 6 7 7 5 3 1 4 4 2 2 3 3 4 5 3 2 3 4 3 6 8 6 3 2 3 3 2 1 1 1
5 7 4 9 29 37 24 9 6 6 6 9 12 14 10 4 2 6 11 13 12 7 3 4 7 8 7 7 6 6 6 6 8 8 6 9 12 9 3 3 8 8 6 4 5 4 3 0 3 3 2 4 4 2 3 3 4 4 4 5 6 5 5 4 5 4 3 3 1 2 5 5 2 3 4 4 2 4 6 5 2 5 6 4 3 1 3 5
5 9 5 9 33 34 13 6 10 7 7 10 13 13 9 5 7 8 9 11 12 10 8 5 6 9 9 7 7 7 6 5 8 10 8 9 11 9 6 7 10 9 6 2 2 1 2 1 3 4 3 1 2 1 1 1 3 2 3 4 5 7 7 6 5 2 2 4 3 1 7 4 2 3 3 2 1 1 2 3 4 6 6 5 6 6 6 6
4 7 6 11 33 29 7 7 12 10 9 10 12 14 11 9 11 10 10 12 10 8 9 8 8 9 9 5 4 6 8 7 8 11 11 8 5 4 9 12 12 9 5 3 3 3 3 3 2 2 4 3 2 2 2 2 0 3 4 6 8 9 7 6 3 0 3 6 8 6 8 4 3 4 4 4 4 4 4 6 6 6 5 6 6 7 6 6
4 5 3 10 25 20 6 7 11 10 12 14 15 16 14 11 11 12 12 12 10 9 9 10 11 11 9 7 5 5 9 9 8 9 9 7 3 1 6 11 11 8 5 6 6 3 2 3 4 5 7 9 6 3 3 3 2 3 5 8 11 12 11 7 3 4 7 6 9 10 8 2 3 5 5 6 5 4 5 6 4 3 5 7 6 6 6 6
4 4 3 6 10 8 5 6 9 9 12 16 15 15 17 14 10 11 12 11 11 12 10 9 12 11 9 9 8 8 11 11 7 4 4 5 4 1 1 6 7 6 7 11 9 4 2 2 6 9 10 11 7 3 1 4 4 4 7 11 13 14 14 9 6 8 6 3 7 12 8 5 6 5 5 6 4 5 8 8 6 5 6 8 7 5 6 6
3 3 4 4 4 6 6 7 10 9 10 13 11 11 19 19 12 10 12 11 12 14 12 10 12 12 11 13 12 11 12 12 8 6 6 5 3 1 1 3 4 4 8 10 9 6 3 6 12 14 15 15 12 11 8 2 3 5 7 11 14 13 14 13 12 11 5 3 9 8 8 11 11 7 10 9 6 8 10 10 9 7 7 8 8 6 6 7
4 4 4 3 3 5 6 9 13 13 14 14 9 9 18 21 17 14 12 11 12 13 11 10 14 17 17 17 14 11 12 12 11 11 11 9 6 2 1 2 5 5 6 6 5 6 4 10 14 13 16 19 16 16 15 12 10 9 6 8 12 13 15 17 18 15 9 9 11 4 7 13 10 8 12 12 10 11 10 9 8 9 9 8 7 8 7 8
4 3 3 3 3 4 5 7 11 15 18 17 11 11 16 19 20 18 12 9 12 14 13 13 16 19 19 17 14 12 13 12 12 12 12 12 11 8 5 4 4 5 6 4 4 4 5 9 12 10 12 18 18 17 15 13 13 14 13 13 12 13 16 18 18 17 15 17 18 11 12 16 9 6 10 9 9 10 8 9 9 9 11 9 7 7 7 8
4 3 2 3 4 4 6 7 8 11 14 15 13 13 15 18 18 16 13 13 14 13 15 18 18 17 18 19 18 17 16 14 14 14 14 14 12 10 9 7 4 4 6 5 2 3 5 6 8 8 9 15 17 15 12 11 11 13 15 17 17 17 18 18 16 13 13 17 18 14 18 18 8 6 10 9 9 10 11 13 13 10 10 10 7 6 6 7
7 3 1 3 5 4 6 6 7 9 10 10 11 11 16 21 20 15 13 16 17 13 13 19 20 15 16 20 23 22 18 16 16 15 15 15 14 12 9 7 8 8 7 6 3 4 6 3 3 6 7 13 14 12 12 11 9 12 19 24 23 21 18 16 13 11 13 15 14 13 17 15 6 6 10 8 7 12 13 13 12 10 8 7 6 5 6 7
7 3 4 3 4 5 6 6 7 8 6 6 7 7 10 14 14 15 14 13 17 17 14 17 18 13 14 20 24 22 17 16 16 14 11 11 12 12 8 8 11 12 9 7 5 4 6 5 3 5 7 11 10 9 10 8 6 12 21 24 24 22 19 16 15 16 17 15 12 13 16 13 5 7 9 7 8 12 10 6 6 6 5 4 5 8 9 10
Wind_Direction
263 268 271 274 272 267 274 278 285 292 302 308 312 315 318 319 319 322 326 329 331 331 331 329 326 325 324 325 324 324 325 318 311 296 265 260 258 251 258 267 261 250 237 222 216 237 252 254 256 232 219 243 226 227 246 222 186 222 234 245 251 252 255 265 269 274 289 295 299 301 303 302 301 295 296 305 293 288 287 281 274 259 251 257 263 276 280 267
258 263 264 271 275 266 268 273 276 282 292 300 306 311 315 316 317 318 321 324 327 329 329 327 326 325 324 325 324 326 327 315 297 278 273 272 258 247 245 233 222 217 202 209 222 239 263 280 296 287 248 248 232 226 235 204 174 207 240 250 251 259 264 272 276 280 288 290 290 290 291 291 290 290 292 285 280 283 283 279 281 273 254 249 251 256 260 263
255 261 259 267 277 271 265 268 272 277 282 290 301 310 314 315 318 318 319 321 323 326 328 328 326 325 324 324 325 331 327 309 289 268 272 267 246 235 217 168 162 207 197 216 246 266 278 286 294 291 268 255 249 242 241 199 160 206 227 249 255 263 270 273 279 287 293 297 292 286 289 285 279 281 282 279 277 273 271 275 277 275 271 269 267 263 257 249
254 259 263 266 270 270 265 265 271 274 278 282 293 305 313 314 316 317 317 318 319 322 325 328 326 325 324 324 325 332 324 300 285 246 192 187 184 181 174 143 76 78 204 224 266 276 277 280 270 263 258 258 253 252 251 223 177 216 227 249 258 270 282 283 288 296 298 298 289 284 288 283 276 273 271 273 272 263 262 267 267 271 275 273 267 265 264 254
259 260 266 266 263 267 267 265 267 271 276 282 289 298 309 312 310 311 312 314 318 320 322 324 325 325 324 324 328 333 321 291 346 100 136 154 154 150 150 89 46 9 215 223 258 263 263 269 261 252 246 257 256 248 245 228 221 241 243 246 255 273 286 282 281 280 281 281 277 279 283 283 282 274 266 264 263 258 257 260 263 269 274 277 275 271 273 272
263 261 263 265 263 266 268 268 263 264 277 284 288 293 304 308 305 305 307 309 315 318 319 322 326 327 324 324 328 322 288 257 46 115 156 166 170 177 196 23 19 314 213 232 255 255 256 259 251 247 243 247 250 250 255 240 230 249 253 252 255 261 271 279 284 281 283 286 284 284 278 276 277 273 268 262 262 263 260 259 261 264 271 279 282 280 282 281
262 260 257 261 264 264 267 268 263 271 282 288 292 296 301 304 302 301 304 307 310 315 319 321 326 326 325 331 327 275 237 251 278 265 208 190 196 218 255 308 316 218 207 233 244 245 260 261 250 253 258 256 253 254 263 262 252 260 273 281 277 266 265 275 283 283 284 283 283 280 276 272 268 270 271 261 259 262 261 260 260 259 262 267 270 269 269 269
259 259 255 257 260 260 261 260 261 272 278 285 295 303 303 301 303 301 302 306 307 314 318 320 325 328 331 336 331 261 242 251 262 260 232 212 216 235 260 282 267 210 211 234 240 246 259 262 262 265 263 258 265 272 282 289 271 263 268 272 278 276 271 273 276 278 278 277 278 273 268 265 262 267 267 262 261 263 261 261 261 259 257 255 256 257 257 257
253 254 252 252 257 260 261 258 258 264 270 280 292 306 308 302 301 300 300 303 306 310 314 318 321 327 329 323 313 278 258 249 248 239 227 227 236 248 256 241 215 204 214 234 245 255 253 254 265 277 289 283 285 290 293 289 269 265 278 279 284 290 292 290 284 280 277 273 274 272 269 264 261 265 262 258 260 261 259 258 258 256 256 255 254 253 252 252
250 249 248 249 255 261 262 259 258 261 265 275 286 301 310 306 297 295 299 302 305 307 309 316 318 324 320 294 263 258 249 192 207 217 227 235 233 236 236 215 201 205 224 239 240 247 245 252 274 341 345 298 283 286 278 275 280 278 284 286 284 289 292 285 279 274 273 271 267 265 265 263 255 253 262 260 255 256 253 251 254 252 252 253 253 253 251 250
249 248 252 251 251 258 262 259 259 260 259 274 290 294 305 308 298 292 296 297 302 306 306 309 314 319 308 280 238 234 158 123 155 208 226 223 207 208 218 215 203 207 230 246 236 236 243 259 292 2 342 273 274 279 269 286 311 292 286 287 283 285 280 273 271 268 265 263 257 256 261 260 248 240 254 262 259 257 255 252 252 251 250 249 249 249 247 248
250 249 253 252 252 256 260 261 259 259 265 278 287 289 300 304 294 288 291 295 300 304 304 304 307 305 295 269 237 236 206 160 217 242 217 206 204 210 217 218 212 218 237 253 250 246 243 258 298 252 252 296 290 281 288 326 321 297 291 289 282 278 272 266 263 257 252 251 247 260 274 260 236 240 248 255 256 253 251 253 254 252 251 249 249 247 243 245
256 255 256 255 256 257 259 260 257 259 267 275 280 291 302 302 292 287 290 293 297 300 301 301 299 286 279 260 244 248 240 241 265 263 231 208 211 216 215 210 205 220 242 256 290 330 254 244 262 245 267 290 279 290 313 313 303 286 276 272 279 282 269 262 262 251 235 245 234 56 286 260 227 243 252 255 258 256 248 244 246 248 249 248 248 248 245 243
257 258 259 258 258 259 259 256 251 256 266 272 281 298 305 301 293 288 291 294 295 296 295 291 282 268 252 248 264 268 251 252 260 249 234 220 214 210 208 207 201 210 231 244 291 344 328 264 271 265 273 261 268 303 306 293 278 273 269 258 262 271 268 268 286 286 240 211 109 138 259 269 257 254 258 258 263 272 267 251 244 241 239 241 241 242 243 240
257 258 259 260 261 261 257 252 249 255 264 268 282 303 305 297 290 287 290 293 292 289 289 281 259 248 264 267 271 274 252 245 247 237 227 213 207 204 199 201 200 199 213 232 250 264 240 231 248 259 263 240 245 282 284 275 262 256 259 262 249 252 283 297 293 289 281 242 167 188 252 277 271 262 259 262 267 272 273 268 262 257 249 243 239 238 240 239
258 256 257 260 262 262 256 249 244 245 250 255 288 305 306 304 299 289 287 286 284 284 280 267 233 220 273 286 254 265 229 219 237 235 222 208 205 207 190 181 182 179 188 203 210 219 204 202 232 260 268 242 221 247 267 275 267 242 233 257 265 276 305 313 310 309 322 56 206 217 261 280 277 274 269 266 266 264 264 263 259 258 258 253 250 246 245 244
256 253 255 259 260 261 256 245 239 238 245 262 291 306 310 311 303 286 282 277 271 268 245 248 234 213 251 273 231 270 216 200 223 222 211 207 207 208 183 164 170 175 178 178 183 194 183 189 227 245 240 234 231 246 270 271 263 253 246 270 294 306 312 303 308 323 121 210 240 241 257 271 277 282 283 274 267 266 265 263 258 253 253 252 251 249 248 247
253 251 252 256 259 259 253 245 245 246 256 274 290 307 309 308 299 281 273 261 250 244 238 249 251 234 243 237 229 263 145 169 180 176 190 194 199 208 190 168 170 165 166 179 189 185 172 191 215 233 230 215 223 226 234 249 267 288 290 303 304 302 298 289 297 310 284 268 267 267 271 277 282 286 288 283 275 270 267 265 262 256 251 248 246 243 243 245
250 250 251 253 255 256 248 243 247 250 261 280 299 312 306 296 283 266 243 218 197 194 228 211 201 228 307 210 201 167 98 138 157 166 175 176 183 197 191 181 175 169 179 186 182 179 171 194 208 225 235 215 214 212 221 244 265 280 287 294 297 293 287 284 284 290 294 289 284 287 285 285 288 289 289 289 283 271 266 264 260 257 255 251 249 244 239 242
250 249 250 250 249 250 244 238 243 248 258 280 307 313 304 280 253 244 207 210 216 236 286 206 193 238 325 84 140 142 137 154 179 183 177 172 166 173 183 182 177 191 210 189 166 172 172 204 220 220 225 223 228 225 228 244 253 264 280 286 284 280 280 285 286 289 310 314 292 289 288 284 285 288 288 289 289 277 265 263 260 254 252 249 248 248 243 243
249 248 248 247 244 243 239 236 238 242 254 280 301 286 298 336 289 317 199 234 232 240 266 254 219 237 255 261 130 160 171 194 217 187 172 169 159 160 172 178 181 199 214 209 178 149 179 220 228 222 228 231 240 247 248 257 261 265 274 281 281 275 279 283 285 294 40 14 287 293 291 287 286 287 287 286 286 277 258 250 260 259 253 247 241 242 240 242
245 245 245 243 240 238 237 238 234 234 246 263 260 240 264 325 308 342 319 268 248 231 240 250 246 248 247 248 224 188 224 231 210 178 167 172 171 173 170 176 194 196 195 208 203 158 208 239 238 230 237 239 244 255 261 271 275 273 271 277 273 270 284 281 280 307 19 269 294 304 297 292 290 286 283 281 273 270 250 232 284 302 307 297 281 268 257 262
243 242 241 239 237 236 235 234 225 221 230 212 206 227 247 279 294 320 284 277 275 235 221 229 234 237 240 244 222 190 220 223 212 190 174 175 187 197 182 178 200 206 192 200 201 201 222 233 232 230 234 239 244 243 239 256 264 250 250 263 266 273 288 282 295 328 329 297 292 306 302 290 287 283 287 284 261 154 90 170 292 323 336 317 317 323 314 294
242 238 236 234 232 233 231 223 209 209 214 192 200 221 232 266 287 300 273 268 268 232 214 214 215 218 226 226 192 189 219 216 209 195 176 176 177 190 202 188 197 213 208 208 206 220 234 223 223 233 221 227 239 236 223 237 252 240 233 237 255 269 267 270 301 322 314 289 287 332 321 285 286 315 315 304 302 97 113 222 265 254 239 255 285 293 276 261
242 236 233 228 226 227 220 208 200 205 205 196 215 224 227 256 275 268 273 283 261 234 215 209 202 213 216 197 168 178 216 216 221 194 169 181 175 159 207 195 200 219 213 219 220 231 241 238 259 260 221 220 227 231 216 206 245 254 230 227 246 263 272 287 316 326 319 286 353 25 342 281 318 331 308 300 318 77 146 247 254 239 220 216 247 248 230 238
249 236 229 222 220 214 203 207 207 195 191 210 221 215 218 236 253 252 255 303 266 231 158 189 182 187 185 165 158 157 241 225 210 175 166 186 187 170 210 190 201 229 213 220 231 243 239 226 235 229 216 215 218 232 211 181 232 269 232 223 252 277 297 308 315 319 309 278 306 30 289 271 309 308 296 300 299 215 177 263 285 302 19 350 293 265 201 297
275 244 227 218 214 202 189 192 189 175 175 224 211 187 194 213 230 248 251 305 274 164 107 166 216 178 153 149 158 149 269 248 157 162 168 188 195 195 231 201 192 220 207 223 230 234 210 207 217 211 211 218 219 234 208 184 222 258 356 205 254 288 294 296 304 290 265 286 292 241 202 252 296 291 288 290 289 227 168 324 9 17 18 15 356 4 18 26
316 268 231 218 211 205 198 170 163 170 189 198 189 186 185 189 203 233 60 285 283 98 103 92 35 74 113 156 174 160 273 316 129 155 146 180 200 202 228 224 219 204 182 206 225 222 163 204 208 195 206 222 223 233 208 198 220 225 47 67 197 296 285 287 288 268 276 303 294 234 163 214 268 277 291 286 303 9 355 8 23 11 11 11 360 7 4 8
325 310 243 221 211 208 204 180 165 183 192 170 173 185 175 172 182 70 58 239 281 78 103 131 101 105 115 156 202 197 31 14 204 48 78 166 216 284 234 240 263 237 207 213 228 256 53 191 200 197 213 224 223 233 220 211 212 160 56 7 251 260 251 256 253 264 297 284 269 242 161 195 273 276 285 298 44 354 334 17 29 11 6 3 0 10 2 355
318 325 273 225 207 197 191 186 181 187 185 170 166 167 158 162 150 77 181 238 327 46 117 140 98 127 142 151 204 219 234 72 76 65 87 212 211 301 280 250 285 276 246 230 238 249 250 78 71 211 236 237 200 200 242 207 171 110 31 316 292 256 225 221 228 247 298 263 262 233 180 172 297 280 267 42 14 321 337 37 28 18 6 1 22 30 20 8
309 317 304 230 207 192 179 179 184 185 182 164 152 152 150 143 79 136 205 235 9 99 130 144 123 130 160 169 169 187 214 170 120 136 180 207 198 216 257 204 169 286 270 253 248 245 240 232 187 192 208 197 116 107 36 52 89 90 138 314 325 287 235 181 182 165 220 253 272 216 169 169 223 263 279 315 315 322 71 71 45 32 360 356 36 49 42 26
302 303 306 253 218 200 191 189 183 177 168 154 146 147 151 87 170 210 218 59 71 188 123 138 154 150 172 209 214 166 189 193 147 160 181 188 200 204 219 212 163 166 243 240 230 229 235 228 214 192 182 184 171 148 60 37 92 129 163 153 29 317 295 204 192 192 212 237 251 139 145 196 240 255 269 284 299 16 109 111 99 74 347 346 26 53 53 38
301 298 293 277 237 210 203 194 179 165 155 152 146 133 156 169 218 218 209 202 172 152 99 128 155 155 162 201 221 164 189 207 146 173 206 190 215 215 214 228 219 218 242 210 211 218 239 227 203 184 180 192 191 186 181 172 171 173 168 160 163 184 243 233 221 221 223 236 224 188 182 244 262 248 251 264 275 122 130 133 135 134 336 336 346 18 48 45
301 300 291 282 263 231 211 190 172 159 152 152 147 126 172 213 239 214 201 219 213 131 118 131 146 156 169 194 201 148 179 213 152 170 217 196 221 226 212 227 233 246 300 265 229 206 234 257 189 173 164 183 195 207 203 168 172 189 184 177 197 207 213 220 213 227 251 299 224 199 202 221 209 251 276 290 114 135 132 135 162 176 158 325 328 343 17 34
296 296 292 281 270 248 212 186 171 159 151 149 157 165 191 220 232 214 205 212 210 162 153 148 146 153 183 201 225 163 165 191 158 160 212 211 220 228 211 216 220 226 241 230 233 200 226 272 198 193 230 172 187 214 212 167 164 193 172 177 231 233 207 237 297 198 159 347 260 202 233 234 217 288 291 291 115 124 121 136 186 198 172 269 321 331 352 15
292 291 290 276 266 250 204 180 169 159 150 146 185 193 210 221 211 194 195 191 192 178 151 158 158 161 192 185 199 199 171 140 157 156 211 223 239 240 224 214 203 205 211 208 213 208 222 260 142 2 358 149 153 218 215 196 177 189 164 180 233 212 138 230 302 33 108 249 250 194 245 272 276 287 274 229 123 127 146 170 199 213 204 202 297 314 330 342
289 285 282 267 259 243 199 178 168 160 154 160 197 205 215 224 217 207 202 153 180 179 161 187 201 178 189 192 183 188 171 128 164 167 177 203 239 236 223 227 202 198 207 212 238 263 219 241 241 208 45 84 37 22 327 330 81 145 184 206 316 23 53 121 278 356 182 250 252 188 236 259 225 276 251 149 135 158 177 186 196 218 221 206 239 277 300 306
285 276 273 260 251 234 193 177 169 164 159 179 209 220 217 223 222 208 211 194 182 180 177 205 208 173 180 199 185 170 168 168 171 169 176 198 225 209 199 215 212 204 207 207 234 289 236 223 259 260 88 114 68 48 338 313 107 126 236 254 96 79 255 161 176 231 211 244 263 218 240 239 183 226 243 173 157 169 183 192 200 219 213 196 219 242 264 287
281 273 276 253 241 225 191 177 171 169 170 189 211 221 218 228 231 210 207 217 203 189 195 209 211 196 197 199 178 157 171 178 166 169 187 195 220 210 184 190 213 210 200 194 213 275 313 231 255 298 343 116 84 111 187 199 152 79 326 304 122 162 203 179 193 218 199 225 258 240 257 252 206 207 227 241 183 164 176 192 205 221 183 156 204 230 238 263
265 254 270 238 219 205 186 177 173 183 192 201 210 217 222 232 235 217 207 212 215 207 209 212 208 209 212 203 185 168 177 178 170 181 198 195 226 240 189 183 202 209 185 187 207 262 358 244 233 337 325 265 156 201 191 186 189 188 223 238 213 193 167 205 254 229 192 206 241 249 259 249 236 180 186 286 261 175 169 180 192 211 115 142 253 254 227 242
229 246 264 222 194 181 173 176 190 196 201 212 214 222 231 234 234 212 207 214 226 234 215 222 220 214 205 202 196 166 168 184 181 185 199 205 222 234 192 173 170 150 144 176 211 216 175 245 231 189 250 227 220 215 185 175 184 188 195 199 198 191 165 214 259 226 193 204 211 234 249 238 252 349 16 324 276 158 145 146 170 249 257 241 259 221 131 62
220 242 252 188 180 170 164 187 208 192 212 216 214 220 223 232 244 203 201 211 224 231 231 232 232 224 208 207 209 176 163 185 190 191 206 211 213 215 202 138 144 144 134 157 221 208 141 334 264 236 216 220 242 218 148 149 149 169 215 202 193 204 187 194 232 215 202 235 205 267 266 243 239 301 339 354 16 105 115 121 182 255 262 267 278 346 48 40
223 244 271 186 178 172 166 208 199 208 230 220 226 231 225 236 236 215 202 205 210 215 222 231 232 232 228 216 207 190 179 188 194 200 215 222 220 211 172 137 137 143 142 152 241 193 130 144 251 266 289 308 302 301 136 105 118 172 242 201 195 216 205 211 231 181 196 223 163 220 254 227 177 249 266 288 293 112 131 180 226 257 281 298 316 352 11 15
233 245 278 198 183 180 184 204 198 215 223 221 237 237 236 243 234 226 216 207 203 201 209 217 220 227 230 213 191 191 195 204 206 208 215 222 223 183 157 155 152 152 160 175 178 172 176 173 172 238 263 267 289 274 274 319 166 208 220 198 209 219 216 232 248 56 251 211 169 206 244 205 179 239 243 237 234 224 228 226 221 238 280 305 328 351 356 358
253 235 258 205 190 191 215 215 213 223 217 223 235 232 234 241 233 234 230 216 208 202 206 214 216 221 219 200 190 197 205 214 215 210 212 216 222 127 158 173 171 171 172 148 140 146 168 173 175 195 220 230 230 214 213 213 202 228 212 199 210 214 213 223 215 215 234 191 174 217 241 194 194 241 248 247 255 263 259 254 238 245 293 314 328 338 342 349
257 231 225 213 197 207 241 229 233 238 219 221 230 228 228 232 233 232 231 228 215 208 216 219 211 219 218 204 207 211 216 224 222 207 199 197 207 350 191 199 193 186 170 146 132 118 92 202 216 215 224 233 239 251 198 139 148 211 209 202 210 211 208 210 217 221 221 196 219 229 234 243 241 239 249 254 281 300 287 288 301 311 314 314 311 320 334 328
256 240 216 220 212 216 228 232 238 244 231 224 222 220 224 227 233 227 219 222 214 209 222 225 210 211 208 204 215 219 218 225 225 222 222 206 198 18 2 247 242 198 168 156 147 130 127 237 228 223 236 243 251 269 278 278 243 237 211 205 214 214 206 208 224 225 198 233 250 220 199 235 241 235 252 265 282 284 282 291 304 307 304 303 306 318 329 316
250 251 240 273 272 220 217 228 230 234 242 241 232 226 227 224 220 220 218 222 219 211 217 224 215 215 212 206 212 218 216 221 223 219 223 222 212 189 141 248 235 198 164 167 174 143 156 239 232 221 240 248 250 257 265 275 281 276 259 230 220 214 210 212 224 226 205 228 250 215 195 230 229 220 239 255 267 272 279 289 294 298 296 300 310 316 319 310
253 261 256 278 274 254 261 258 243 239 240 241 239 236 237 232 223 219 215 219 225 216 216 225 218 215 218 214 213 217 210 211 217 214 216 223 215 200 203 222 215 183 161 171 203 161 168 235 233 216 237 251 249 246 248 257 268 272 269 259 244 229 222 218 224 224 219 234 247 253 252 247 229 218 237 245 260 270 281 285 285 290 294 299 304 303 305 302
258 274 274 272 274 281 286 272 260 255 244 237 238 237 240 242 236 227 218 220 227 217 213 226 225 215 217 217 219 224 217 212 217 212 208 216 215 209 212 204 163 154 176 177 195 211 204 227 221 201 230 251 245 239 234 230 245 262 265 258 251 245 238 231 228 222 222 238 245 251 261 257 233 232 253 253 263 278 282 281 284 287 286 290 294 294 297 298
250 242 187 281 288 274 270 265 259 265 256 242 242 242 242 242 239 238 234 229 233 226 212 223 227 221 220 221 224 228 224 222 226 221 212 211 211 213 210 183 156 160 183 183 169 202 211 218 197 182 223 246 236 228 233 230 238 259 259 252 243 239 240 239 237 228 223 236 243 242 253 256 214 208 245 239 241 263 268 272 281 282 269 268 284 311 324 327
251 235 182 224 280 267 267 275 262 260 261 256 258 257 256 259 255 251 246 232 228 226 219 221 224 223 225 225 226 228 226 228 233 233 230 226 222 222 211 182 175 171 173 182 176 181 194 207 217 190 219 248 232 208 221 227 226 244 248 244 237 234 237 238 241 237 226 227 235 236 245 253 222 211 239 232 227 248 263 282 308 318 321 333 360 13 13 12
Height
801 802 802 802 803 803 803 803 804 804 804 804 804 804 803 803 802 802 801 800 799 798 798 798 798 797 796 795 793 791 789 787 785 784 781 778 777 777 777 778 778 778 778 778 778 778 777 777 775 775 776 777 777 776 774 772 772 778 785 791 789 783 777 769 764 759 755 753 750 747 746 749 750 745 740 739 739 738 737 733 730 727 725 723 724 724 724 724
801 801 801 802 802 802 803 803 803 803 803 803 803 803 803 802 802 801 800 800 799 798 798 797 797 797 796 795 793 792 790 787 785 781 775 773 774 775 776 778 778 777 777 777 777 776 776 775 774 774 775 776 775 773 773 769 770 778 784 787 783 776 769 761 758 753 751 752 750 748 746 748 749 746 742 743 744 741 740 736 732 728 723 721 721 722 722 720
800 801 801 801 801 801 802 802 802 802 802 802 802 802 802 802 801 800 800 799 799 798 797 797 797 796 795 794 793 792 790 787 784 776 769 769 772 772 775 777 776 777 777 777 777 776 776 775 774 774 775 776 773 771 772 769 770 775 779 784 777 768 763 756 754 751 749 749 749 748 746 746 746 743 742 744 743 742 741 737 734 730 724 722 721 720 719 718
799 799 800 800 800 800 801 801 802 802 802 802 801 802 802 801 801 800 799 799 798 798 797 796 796 795 795 793 793 792 790 788 779 770 768 769 770 771 773 775 775 776 776 777 777 776 776 775 775 774 775 776 772 770 771 769 770 771 773 778 771 762 761 756 752 751 749 748 748 747 746 746 742 740 740 742 743 741 738 734 732 730 725 723 720 718 717 715
798 798 799 799 799 799 800 800 801 801 801 801 801 801 800 800 800 800 799 798 798 797 796 796 795 794 794 792 792 791 792 790 775 767 770 770 770 771 772 773 774 774 775 777 777 776 776 775 774 774 775 776 773 771 770 764 766 769 767 766 762 761 762 756 751 750 748 747 746 744 745 745 741 738 737 739 740 736 731 729 727 725 723 721 719 717 715 714
797 797 798 798 798 799 799 799 799 800 801 801 801 800 800 800 799 799 798 798 797 797 796 795 795 794 793 792 791 791 793 786 771 769 771 770 771 771 772 772 773 774 775 776 776 775 775 774 775 776 775 774 773 770 767 760 761 767 763 757 756 757 758 753 749 748 746 747 746 744 742 741 741 740 736 735 732 726 724 723 722 721 720 719 717 715 714 713
796 796 797 797 797 798 798 798 798 799 800 800 800 800 799 798 798 798 797 797 797 796 795 795 794 793 792 791 790 791 791 780 770 772 771 770 772 771 772 772 773 774 774 775 775 775 775 774 775 774 774 773 770 766 763 758 759 764 762 757 754 753 752 751 749 747 746 746 744 741 740 740 742 740 735 730 724 720 721 719 718 718 717 717 715 714 713 712
795 795 796 796 796 797 797 797 797 798 799 799 799 799 799 798 797 797 797 797 796 796 795 794 794 793 792 791 790 789 786 776 770 772 771 771 771 770 772 772 773 774 774 774 773 773 774 775 774 772 774 772 767 764 761 760 761 761 760 757 753 750 748 748 747 745 744 743 740 738 738 738 736 736 732 724 720 718 718 716 715 715 714 714 713 712 711 709
794 794 795 795 795 796 796 796 797 797 797 798 798 798 798 797 797 796 796 796 795 796 794 794 794 793 793 791 791 790 779 769 769 770 769 770 770 770 771 771 772 772 773 773 772 773 774 775 773 771 774 770 766 766 763 766 766 760 757 754 752 751 748 747 746 744 742 740 738 738 737 733 730 732 726 716 716 715 713 713 711 711 711 710 709 708 707 705
792 793 794 794 794 795 795 796 796 796 797 797 797 797 797 797 796 796 795 795 795 795 794 794 793 793 793 791 792 788 772 767 769 768 769 769 769 770 770 770 772 772 772 772 771 772 772 773 771 770 774 772 768 768 765 766 764 756 755 753 752 752 749 748 746 741 740 737 735 736 735 728 726 731 722 709 710 709 708 709 706 707 707 705 705 703 702 701
791 792 793 793 794 794 794 795 795 796 796 796 796 796 796 796 796 795 794 794 794 794 794 793 793 793 792 791 791 781 767 767 769 768 769 768 769 769 769 770 770 771 771 770 771 771 772 772 770 771 775 772 769 768 764 762 760 756 756 754 752 752 748 745 743 738 736 734 730 729 728 722 722 725 717 706 705 704 704 704 701 702 701 700 699 697 697 695
790 791 791 792 792 793 793 794 794 795 795 795 796 795 796 795 794 794 794 794 793 794 793 792 793 792 791 791 784 772 766 767 767 767 768 767 768 768 768 769 770 770 770 770 770 770 771 771 771 774 774 770 771 770 763 759 759 757 757 759 754 749 745 738 734 729 729 729 722 723 726 721 720 717 707 701 700 699 700 699 698 697 696 695 694 692 691 689
789 790 790 791 791 791 792 792 793 794 794 794 794 794 795 794 794 793 793 793 793 793 792 792 792 791 793 787 772 765 765 766 766 767 767 767 768 767 768 768 768 769 769 769 770 769 770 770 772 774 772 772 773 770 763 758 760 759 757 758 754 751 742 728 724 720 722 723 716 726 734 721 714 708 699 697 694 693 695 694 693 692 691 690 688 687 685 684
787 788 789 789 790 790 790 791 792 792 793 793 793 793 793 793 793 792 792 792 792 792 791 792 791 791 790 778 764 763 764 764 765 765 765 766 766 767 767 767 768 768 769 769 770 770 771 771 772 773 772 772 771 767 766 763 762 759 757 754 752 754 740 720 718 718 721 721 714 729 737 719 708 702 694 692 690 690 690 688 687 686 685 684 682 681 679 678
786 787 788 788 788 789 789 790 790 790 791 792 792 792 792 792 792 791 792 791 791 791 790 791 790 790 787 773 761 761 761 762 762 761 763 764 764 766 765 767 768 768 769 770 770 771 771 772 774 775 773 769 769 772 772 768 760 756 759 756 747 746 735 718 716 716 719 720 716 729 734 716 703 697 691 689 688 688 688 685 683 680 678 677 675 675 674 672
785 786 786 787 787 788 788 788 788 789 790 790 790 791 791 791 791 791 790 790 791 790 790 791 787 789 786 770 759 758 758 759 757 757 760 762 762 763 764 766 767 768 769 769 770 771 771 773 773 774 772 769 771 775 774 769 761 752 753 755 746 740 735 726 719 714 716 720 719 724 725 713 699 690 688 687 686 686 684 681 679 677 674 671 671 670 669 668
783 784 785 785 786 786 787 787 787 788 788 788 789 789 789 789 789 789 789 789 789 788 790 788 785 788 779 762 758 757 754 755 755 756 757 759 761 762 763 765 766 768 768 769 771 770 771 773 773 772 772 772 771 772 776 775 764 751 745 747 742 738 739 736 727 717 716 721 721 719 718 710 697 687 684 682 681 681 679 676 673 671 670 667 667 666 665 664
781 783 783 784 784 785 786 785 786 786 786 787 787 788 788 787 786 786 787 788 788 789 790 786 788 786 768 755 757 754 751 753 754 755 756 758 760 761 762 764 765 767 769 771 770 770 772 771 771 772 771 772 771 772 777 771 758 751 748 748 745 742 741 740 733 722 717 720 719 718 715 706 694 686 681 676 676 677 673 669 666 664 664 662 661 661 660 659
780 780 782 783 783 784 784 784 785 784 785 786 786 787 786 784 786 785 785 786 785 785 781 778 779 771 755 749 752 751 751 753 753 755 756 757 759 761 762 764 764 766 770 771 770 769 771 771 772 774 771 768 766 765 766 758 750 749 748 748 750 747 742 736 730 721 717 719 717 717 715 705 695 688 680 672 669 671 667 663 661 659 658 657 656 655 655 655
778 779 780 781 782 782 783 783 784 783 784 785 786 787 784 783 781 780 783 783 777 771 765 765 765 757 749 748 749 751 753 753 753 754 754 755 757 760 762 763 765 767 768 767 768 765 767 772 770 767 764 759 755 752 751 748 745 745 746 748 749 747 742 733 727 718 714 720 719 715 713 704 694 686 677 669 665 665 663 660 658 656 655 654 653 652 651 651
775 777 778 779 781 781 781 782 783 783 783 783 785 786 784 782 780 779 782 777 769 765 762 760 760 755 750 750 750 751 752 752 753 752 753 754 755 759 761 762 766 769 765 762 763 762 764 768 761 754 753 750 747 744 742 743 743 743 747 750 748 746 740 730 724 717 715 723 720 714 711 701 690 684 674 667 664 660 657 656 654 651 651 649 648 649 648 647
773 774 776 778 779 780 780 781 782 782 782 782 784 785 784 783 783 783 784 777 765 762 762 759 758 755 749 749 750 749 751 752 752 751 752 753 754 756 757 759 763 763 760 759 761 765 767 761 752 747 745 743 743 740 741 744 745 746 748 751 751 745 738 729 721 716 717 724 720 714 711 699 684 678 670 663 659 653 649 649 650 649 649 648 646 646 646 646
770 771 774 776 777 779 779 780 781 781 781 781 782 784 784 783 783 784 785 781 765 754 755 754 753 751 747 747 746 748 750 747 748 749 748 751 753 752 753 756 758 756 755 756 758 763 763 751 742 741 740 741 742 739 742 746 747 749 750 753 750 742 740 737 725 720 721 723 720 715 711 697 679 671 665 656 649 646 646 647 647 648 648 648 647 646 646 646
766 768 771 773 776 778 778 780 781 780 780 779 779 781 783 782 783 784 783 778 762 746 742 740 741 742 739 739 740 743 745 741 741 742 742 746 749 750 750 750 753 753 750 748 750 752 748 737 732 733 735 739 741 740 742 748 750 748 746 749 747 740 740 736 728 725 723 722 718 716 713 694 675 672 668 655 647 646 648 648 647 647 646 646 646 646 646 646
764 766 768 771 774 776 779 780 778 779 779 777 777 778 781 783 783 784 784 774 755 739 734 732 734 734 730 733 736 737 741 738 734 735 737 741 743 746 747 745 747 749 746 744 745 745 739 732 731 735 736 735 739 741 741 746 750 746 740 738 739 737 735 732 730 731 734 731 719 721 731 705 675 677 676 660 652 650 650 649 650 648 645 647 647 646 645 645
762 763 765 768 771 774 778 777 775 777 777 776 775 775 780 782 782 784 784 774 748 730 731 730 729 727 725 731 733 735 740 735 728 730 734 737 737 739 744 742 741 743 741 739 741 737 731 729 731 735 737 736 740 742 738 741 750 749 737 730 731 733 734 735 734 737 742 738 721 724 741 722 690 682 676 664 656 653 652 652 650 648 647 647 647 645 644 644
760 761 762 765 767 771 774 772 772 774 775 774 772 774 778 778 782 783 779 769 741 721 728 730 727 726 726 729 730 733 739 730 725 731 733 735 736 736 741 741 739 740 737 738 742 733 725 729 731 733 736 738 740 740 735 736 747 747 733 729 732 733 736 736 736 740 740 736 726 721 730 733 716 691 672 665 660 654 654 653 650 649 649 649 648 647 645 645
759 760 760 761 763 766 767 767 769 770 771 771 770 775 775 776 783 779 777 771 735 712 724 729 728 728 727 731 729 730 734 730 731 736 733 735 737 736 741 739 736 738 735 738 742 730 723 730 731 732 737 738 736 734 730 733 740 739 732 732 733 734 737 736 738 741 737 737 735 722 721 733 724 692 670 663 661 660 657 654 654 653 652 652 650 649 648 646
758 759 759 759 761 763 764 766 767 767 768 770 772 774 773 778 779 775 784 774 726 708 723 727 729 731 730 735 732 729 733 733 736 738 735 737 737 737 741 738 736 737 734 734 735 728 727 730 729 730 736 735 731 729 727 729 734 734 733 734 734 735 736 736 740 740 739 743 739 724 722 729 718 692 674 665 663 666 661 655 658 657 655 655 652 651 649 647
757 757 758 759 759 760 762 764 765 766 767 770 773 773 774 777 775 780 791 763 717 714 728 727 730 732 733 738 737 733 734 735 739 741 741 739 738 739 739 736 737 737 735 733 731 728 727 730 731 730 730 728 726 728 728 728 730 733 734 735 736 734 733 738 740 737 744 745 729 718 718 724 720 693 671 665 664 664 662 661 662 660 659 658 653 651 650 649
756 756 756 757 756 756 758 761 763 765 767 769 772 774 775 775 776 783 775 737 714 723 727 727 732 732 734 736 735 736 736 736 740 744 745 743 742 743 742 739 740 743 743 738 733 729 728 730 731 727 725 725 726 729 731 730 731 734 736 738 739 734 731 739 741 741 751 741 718 712 713 720 722 694 666 662 660 659 661 664 665 663 663 659 654 652 651 651
755 754 755 755 754 753 753 754 757 762 766 768 771 772 773 778 778 769 747 722 719 723 719 724 730 729 733 732 730 736 737 735 739 743 744 745 744 744 743 740 738 744 746 739 735 731 726 724 724 723 723 724 727 731 735 736 735 736 739 741 746 744 739 742 744 743 744 732 715 713 714 717 713 689 671 665 660 659 659 659 662 663 663 660 656 653 651 650
753 752 752 752 753 752 750 751 755 761 764 766 771 772 775 775 760 743 733 719 714 714 713 719 724 725 730 731 729 732 735 734 738 741 740 741 743 742 740 736 731 733 733 731 734 733 725 715 716 724 724 721 723 728 734 737 737 739 739 741 745 745 744 742 735 730 725 719 714 713 713 714 703 681 667 662 659 659 656 656 659 660 661 660 656 653 651 649
751 751 750 749 749 749 749 751 753 757 762 766 770 773 776 765 737 726 732 719 707 710 712 714 720 723 726 728 725 725 733 734 734 739 739 740 743 741 738 736 732 729 729 729 729 728 725 715 713 720 720 717 718 719 721 725 731 734 730 733 735 731 732 731 724 721 719 715 714 715 712 705 691 671 656 654 657 657 656 656 657 657 658 659 657 654 652 649
749 748 747 746 746 745 746 748 750 754 758 764 770 769 765 749 725 722 726 717 710 712 713 712 716 723 726 726 722 720 726 729 730 736 738 737 739 736 732 731 730 730 732 730 721 716 717 711 712 718 715 714 715 714 713 716 726 729 724 731 732 721 720 723 720 719 723 723 718 714 706 688 675 662 650 652 657 656 657 657 657 658 657 658 659 656 653 650
747 745 745 742 741 742 743 745 748 751 754 762 767 759 744 726 712 710 708 705 707 708 714 718 716 721 726 724 724 722 721 724 729 735 737 734 733 729 724 721 722 724 726 723 714 709 711 711 718 722 716 716 719 716 714 715 723 724 723 728 723 713 714 720 722 719 723 729 715 703 698 684 674 665 650 651 658 656 659 659 657 658 657 658 659 657 654 651
745 743 741 738 738 739 741 743 746 748 751 757 755 742 728 711 700 699 696 696 700 701 710 717 711 713 718 715 718 721 721 723 727 732 736 732 725 720 718 713 711 714 715 713 709 703 704 711 720 721 718 721 723 720 717 717 720 722 724 723 715 713 716 720 727 726 725 726 707 692 692 687 684 673 652 650 659 659 659 657 656 657 657 658 658 656 654 651
743 743 738 732 734 737 739 742 744 746 750 753 745 730 719 705 692 694 694 693 695 697 705 709 702 702 706 704 708 715 719 720 723 730 732 727 717 707 708 710 705 703 706 710 712 704 700 708 719 723 724 724 723 722 721 720 721 722 723 722 718 720 720 720 727 728 724 723 706 688 684 680 679 671 654 651 656 658 657 655 654 655 655 656 655 654 653 651
742 742 733 725 729 734 737 740 742 746 748 746 739 723 709 699 692 692 693 692 693 696 700 700 695 697 697 694 698 709 713 710 716 725 723 719 712 696 696 703 700 698 701 707 712 708 702 706 715 724 726 723 723 725 722 720 722 724 725 724 720 719 716 715 717 714 712 714 705 691 684 676 667 658 652 649 647 651 654 652 651 651 649 650 651 650 650 649
741 740 728 719 725 730 735 740 742 744 741 732 724 712 700 694 692 690 691 692 692 691 692 692 691 693 693 691 693 701 706 703 707 715 712 708 703 693 690 694 696 697 699 704 708 708 707 705 710 724 730 725 721 718 712 710 714 721 727 726 720 715 713 712 710 703 704 709 705 698 692 675 655 646 647 647 642 644 647 647 648 648 646 648 647 646 647 647
739 738 725 717 722 725 732 739 736 735 731 721 714 708 698 690 690 692 692 691 691 688 688 689 687 688 690 692 692 694 701 702 702 707 707 701 697 693 689 688 692 698 701 707 710 708 709 706 706 719 729 723 711 704 704 703 703 708 715 716 713 711 711 714 712 702 700 703 697 695 692 672 650 644 644 644 642 640 641 644 646 646 645 646 645 645 645 644
737 734 722 716 720 721 726 730 726 725 722 712 704 700 694 689 691 694 692 692 692 689 688 688 686 685 685 687 689 690 696 700 700 701 701 694 689 688 687 685 690 695 700 708 708 703 706 709 707 709 712 712 708 706 709 709 704 704 707 705 705 705 705 709 709 701 700 699 692 694 694 671 649 647 647 645 644 642 642 643 645 645 645 643 643 643 642 642
732 727 719 717 718 719 721 721 719 718 713 703 697 695 692 690 691 692 691 692 691 688 689 689 686 684 682 681 685 689 691 694 696 695 693 690 685 683 684 686 690 694 699 705 706 703 706 710 713 709 702 705 710 710 709 709 705 704 703 702 702 700 698 698 697 696 699 697 694 699 694 668 648 647 648 646 646 644 644 644 645 645 643 642 641 641 640 641
727 723 719 718 718 717 715 711 708 708 706 703 701 699 696 691 688 687 688 689 688 686 688 688 685 682 680 680 682 685 687 688 689 687 686 687 685 683 684 686 689 691 695 699 699 701 707 709 713 717 711 707 709 710 710 709 707 702 697 697 698 695 694 694 693 696 698 692 691 695 685 663 648 647 647 646 645 644 643 643 643 644 643 642 641 640 641 642
724 721 717 715 715 714 708 702 699 699 701 704 703 699 697 693 686 684 685 685 683 684 685 683 680 678 677 679 682 682 681 680 681 680 681 684 686 687 688 686 686 687 688 692 692 695 705 707 708 715 715 705 699 698 699 699 701 700 693 691 692 692 693 692 694 700 697 687 683 682 673 659 649 645 645 643 641 642 641 640 641 642 642 641 641 641 642 642
722 719 713 711 711 709 705 702 701 698 696 698 697 694 694 692 685 682 684 684 681 680 679 676 676 678 678 679 682 682 679 678 678 679 682 685 685 689 693 690 688 687 687 689 690 696 709 710 704 705 701 691 684 680 679 682 689 693 690 687 687 686 687 690 692 692 688 684 679 671 666 664 655 648 646 643 642 643 641 640 641 641 641 641 641 642 642 642
720 715 707 704 705 705 704 704 703 699 694 690 687 684 684 686 687 684 681 680 677 677 677 674 672 675 677 677 679 680 678 679 682 682 684 685 685 691 697 695 692 691 690 690 690 698 712 711 701 700 696 687 683 679 676 680 684 683 683 685 685 683 684 688 686 680 679 683 676 661 661 665 659 652 649 646 646 646 643 642 642 641 641 641 641 642 642 642
717 710 702 699 700 699 698 697 697 695 694 690 684 679 677 678 682 682 678 675 673 673 675 674 671 669 668 669 673 676 677 681 684 683 683 684 686 691 695 695 696 694 693 694 691 695 708 704 693 698 698 688 686 685 681 682 683 681 681 682 682 682 681 680 677 673 675 678 668 657 658 660 656 653 650 647 646 645 643 643 641 640 641 641 641 642 642 642
713 709 703 701 700 696 692 692 692 691 691 690 685 681 677 674 672 672 672 673 673 670 670 671 668 665 664 665 667 669 670 675 679 679 678 679 682 686 690 691 695 696 694 695 694 694 700 697 690 695 697 688 685 685 684 687 688 685 685 682 680 678 675 672 670 669 672 669 661 660 660 654 651 650 647 645 644 643 642 641 640 640 640 640 641 641 641 642
711 709 706 704 702 699 695 694 693 690 687 685 683 678 676 672 669 667 666 666 667 666 665 666 665 663 663 662 661 659 659 661 666 669 670 675 677 679 681 680 687 697 696 695 696 696 696 692 687 691 695 687 680 680 684 688 689 688 686 682 678 676 671 669 667 667 670 665 660 664 662 649 645 646 644 643 643 642 642 641 640 640 640 640 641 641 641 642
709 708 708 708 704 699 697 694 692 691 686 682 679 676 672 667 665 666 665 660 660 663 662 661 661 661 661 659 655 653 654 655 657 658 660 665 666 666 667 668 675 690 696 695 696 697 696 693 688 692 694 682 672 678 682 681 687 691 683 671 670 671 667 664 664 663 663 661 662 665 655 641 641 644 643 642 643 643 642 641 639 638 637 637 639 641 643 644
708 706 707 709 705 698 696 694 692 690 686 679 677 677 674 669 666 666 663 655 653 657 658 656 659 661 659 655 651 650 651 651 651 652 653 656 656 656 659 661 664 676 687 691 693 693 693 693 690 690 688 676 668 673 676 680 690 685 660 645 653 660 660 660 658 653 652 653 656 653 638 631 638 642 640 642 643 641 641 643 645 643 640 640 644 649 653 655